Home   Weather   Toronto   Past weeks
Flag for Canada

Past Weather in Toronto, Ontario, Canada — Yesterday and Last 2 Weeks

Now
43 °F

Passing clouds.


Feels Like: 37 °F
Forecast: 52 / 37 °F
Wind: 9 mph from Northeast

Location: Toronto Pearson International Airport

Current Time: Oct 18, 2019 at 8:52:38 pm

Latest Report: Oct 18, 2019 at 8:00 pm


Visibility: 15 mi

Pressure: 30.06 "Hg

Humidity: 76%

Dew Point: 36 °F

Location of TorontoLocation

Past Weather in Toronto — Graph

°F

Toronto Temperature Yesterday

Maximum temperature yesterday: 48 °F (at 12:00 am)
Minimum temperature yesterday: 45 °F (at 3:00 am)
Average temperature yesterday: 46 °F

High & Low Weather Summary for the Past Weeks

 TemperatureHumidityPressure
High70 °F (Oct 6, 5:00 pm)100% (Oct 3, 8:00 pm)30.44 "Hg (Oct 3, 8:00 pm)
Low39 °F (Oct 15, 4:00 am)34% (Oct 13, 5:00 pm)29.46 "Hg (Oct 17, 1:00 am)
Average52 °F72%30.04 "Hg
* Reported Oct 3 7:00 pm — Oct 18 7:00 pm, Toronto. Weather by CustomWeather, © 2019

Note: Actual official high and low records may vary slightly from our data, if they occured in-between our weather recording intervals... More about our weather records

Advertising

Toronto Weather History for the Previous 24 Hours

Scroll right to see more
 ConditionsComfort  
Time TempWeatherWind HumidityBarometerVisibility
7:00 pm
Fri, Oct 18
45 °FPassing clouds.14 mph71%30.03 "Hg15 mi
6:00 pm48 °FPartly sunny.12 mph62%30.02 "Hg15 mi
5:00 pm52 °FPassing clouds.9 mph54%30.01 "Hg15 mi
4:00 pm52 °FPassing clouds.5 mph58%30.02 "Hg15 mi
3:00 pm52 °FPartly sunny.5 mph54%30.01 "Hg15 mi
2:00 pm50 °FScattered clouds.7 mph58%30.03 "Hg15 mi
1:00 pm46 °FPartly sunny.14 mph66%30.03 "Hg15 mi
12:00 pm48 °FPartly sunny.8 mph62%30.03 "Hg15 mi
11:00 am46 °FPartly sunny.14 mph66%30.04 "Hg15 mi
10:00 am46 °FPartly sunny.13 mph62%30.02 "Hg15 mi
9:00 am45 °FPartly sunny.16 mph66%30.01 "Hg15 mi
8:00 am43 °FPartly sunny.7 mph76%29.99 "Hg15 mi
7:00 am45 °FPassing clouds.5 mph71%29.97 "Hg15 mi
6:00 am43 °FPassing clouds.9 mph76%29.95 "Hg15 mi
5:00 am45 °FPassing clouds.12 mph76%29.93 "Hg15 mi
4:00 am43 °FPassing clouds.15 mph76%29.91 "Hg15 mi
3:00 am45 °FPartly cloudy.9 mph76%29.90 "Hg15 mi
2:00 am45 °FPassing clouds.8 mph76%29.88 "Hg15 mi
1:00 am46 °FPassing clouds.5 mph66%29.87 "Hg15 mi
12:00 am46 °FPassing clouds.9 mph71%29.86 "Hg15 mi
11:00 pm
Thu, Oct 17
45 °FPassing clouds.8 mph76%29.85 "Hg15 mi
10:00 pm45 °FPassing clouds.15 mph81%29.83 "Hg15 mi
9:00 pm46 °FPassing clouds.24 mph71%29.80 "Hg15 mi
8:00 pm46 °FOvercast.21 mph71%29.79 "Hg15 mi
Weather by CustomWeather, © 2019

See weather overview